User: anonymous   Login
Location: Columbia
(38.9520°N, 92.3340°W)
Time: 01:47:32
(UTC-05:00)
Language:

SL-08 RB Rocket - Orbit

View from above orbital plane
View from above orbital plane
View from above satellite
View from above satellite

Ground track
Ground track

The orbit data is extracted from the following two-line orbital elements,

1 26387U 00033D   17229.76964708 +.00000056 +00000-0 +17968-4 0  9996
2 26387 097.9658 292.4646 0027477 139.1888 332.3622 14.68298319916918
Epoch (UTC): 17 August 2017 18:28:17
Eccentricity: 0.0027477
inclination: 97.9658°
perigee height: 647 km
apogee height: 686 km
right ascension of ascending node: 292.4646°
argument of perigee: 139.1888°
revolutions per day: 14.68298319
mean anomaly at epoch: 332.3622°
orbit number at epoch: 91691

The dashed part of the orbit path shows where the satellite is in the earth's shadow,  

DLR